Location: Te Maire Creek
(41.1333°S, 175.9167°E)
Time: 23:37:40
(UTC+00:00)

SMAP - Pass Details

Date: 19 May 2024
Orbit: 681 x 683 km, 98.1° (Epoch: 22 June)

Event Time Altitude Azimuth Distance (km) Brightness Sun altitude
Rises 18:09:13 0° 358° (N) 3,035 6.6 -13.7°
Reaches altitude 10° 18:11:32 10° 351° (N) 2,129 5.7 -13.2°
Maximum altitude 18:15:59 44° 279° (W) 950 3.4 -12.4°
Drops below altitude 10° 18:20:31 10° 206° (SSW) 2,159 5.2 -11.6°
Sets 18:22:52 0° 199° (SSW) 3,083 6.1 -11.2°
